TimeCDT,TemperatureF,Dew PointF,Humidity,Sea Level PressureIn,VisibilityMPH,Wind Direction,Wind SpeedMPH,Gust SpeedMPH,PrecipitationIn,Events,Conditions,WindDirDegrees,DateUTC
12:55 AM,30.9,30.9,100,30.08,10.0,ESE,6.9,-,N/A,,Clear,120,2011-11-01 05:55:00
1:55 AM,32.5,32.5,100,30.07,10.0,SE,4.6,-,N/A,,Mostly Cloudy,130,2011-11-01 06:55:00
2:55 AM,33.1,33.1,100,30.06,10.0,SE,6.9,-,N/A,,Partly Cloudy,140,2011-11-01 07:55:00
3:55 AM,33.1,33.1,100,30.06,10.0,Calm,Calm,-,N/A,,Mostly Cloudy,0,2011-11-01 08:55:00
4:55 AM,33.1,33.1,100,30.05,10.0,ESE,3.5,-,N/A,,Partly Cloudy,120,2011-11-01 09:55:00
5:55 AM,35.4,35.4,100,30.03,10.0,SE,4.6,-,N/A,,Overcast,130,2011-11-01 10:55:00
6:55 AM,33.8,33.8,100,30.02,10.0,ESE,3.5,-,N/A,,Scattered Clouds,120,2011-11-01 11:55:00
7:55 AM,37.4,35.6,93,30.01,10.0,SE,5.8,-,N/A,,Scattered Clouds,130,2011-11-01 12:55:00
8:55 AM,41.0,35.6,81,30.01,10.0,SSE,8.1,-,N/A,,Scattered Clouds,150,2011-11-01 13:55:00
9:55 AM,46.4,33.8,62,29.98,10.0,SSE,12.7,-,N/A,,Scattered Clouds,160,2011-11-01 14:55:00
10:55 AM,50.0,35.6,58,29.97,10.0,SSE,12.7,-,N/A,,Mostly Cloudy,150,2011-11-01 15:55:00
11:55 AM,55.4,39.2,54,29.97,10.0,South,9.2,19.6,N/A,,Scattered Clouds,190,2011-11-01 16:55:00
12:55 PM,59.0,41.0,51,29.94,10.0,Variable,6.9,-,N/A,,Mostly Cloudy,0,2011-11-01 17:55:00
1:55 PM,59.0,41.0,51,29.91,10.0,South,12.7,-,N/A,,Mostly Cloudy,170,2011-11-01 18:55:00
2:55 PM,62.6,44.6,52,29.89,10.0,South,11.5,-,N/A,,Mostly Cloudy,170,2011-11-01 19:55:00
3:55 PM,62.6,44.6,52,29.89,10.0,South,9.2,-,N/A,,Mostly Cloudy,170,2011-11-01 20:55:00
4:55 PM,62.6,44.6,52,29.90,10.0,South,4.6,-,N/A,,Scattered Clouds,190,2011-11-01 21:55:00
5:55 PM,57.2,44.6,63,29.93,10.0,SW,5.8,-,N/A,,Partly Cloudy,230,2011-11-01 22:55:00
6:55 PM,48.2,46.4,93,29.95,10.0,Calm,Calm,-,N/A,,Partly Cloudy,0,2011-11-01 23:55:00
7:55 PM,46.4,46.4,100,29.95,10.0,NW,3.5,-,N/A,,Mostly Cloudy,310,2011-11-02 00:55:00
8:55 PM,53.6,44.6,72,29.95,10.0,Calm,Calm,-,N/A,,Mostly Cloudy,0,2011-11-02 01:55:00
9:55 PM,50.0,44.6,82,29.96,10.0,Calm,Calm,-,N/A,,Overcast,0,2011-11-02 02:55:00
10:55 PM,48.2,46.4,93,29.95,10.0,WNW,3.5,-,N/A,,Overcast,290,2011-11-02 03:55:00
11:55 PM,48.2,46.4,93,29.95,10.0,NW,6.9,-,N/A,,Overcast,320,2011-11-02 04:55:00